Precipitable_Water
0.18 0.18 0.18 0.18 0.18 0.18 0.18 0.18 0.19 0.19 0.19 0.20 0.20 0.20 0.21 0.21 0.23 0.25 0.25 0.26 0.29 0.33
0.16 0.15 0.15 0.16 0.16 0.17 0.18 0.18 0.18 0.19 0.18 0.19 0.19 0.20 0.19 0.18 0.18 0.19 0.22 0.24 0.25 0.27
0.16 0.16 0.16 0.16 0.16 0.17 0.17 0.18 0.18 0.19 0.19 0.19 0.19 0.19 0.19 0.19 0.19 0.18 0.18 0.19 0.21 0.24
0.16 0.17 0.17 0.17 0.17 0.18 0.18 0.19 0.19 0.19 0.19 0.19 0.19 0.20 0.19 0.19 0.19 0.19 0.18 0.18 0.19 0.20
0.17 0.17 0.17 0.18 0.18 0.19 0.19 0.19 0.20 0.20 0.20 0.20 0.20 0.20 0.20 0.19 0.19 0.19 0.18 0.18 0.18 0.18
0.16 0.17 0.18 0.19 0.19 0.20 0.20 0.20 0.20 0.21 0.20 0.20 0.20 0.20 0.20 0.20 0.20 0.20 0.20 0.19 0.18 0.18
0.17 0.18 0.19 0.20 0.20 0.21 0.22 0.21 0.22 0.23 0.22 0.22 0.21 0.21 0.21 0.21 0.20 0.20 0.20 0.20 0.20 0.19
0.18 0.20 0.20 0.20 0.21 0.21 0.22 0.23 0.24 0.24 0.25 0.25 0.23 0.22 0.22 0.22 0.21 0.20 0.20 0.20 0.20 0.21
0.19 0.20 0.20 0.21 0.22 0.23 0.24 0.25 0.26 0.26 0.26 0.25 0.26 0.24 0.24 0.25 0.24 0.24 0.22 0.20 0.20 0.21
0.20 0.20 0.21 0.23 0.24 0.24 0.25 0.26 0.26 0.26 0.27 0.27 0.27 0.28 0.27 0.26 0.26 0.26 0.24 0.23 0.22 0.21
0.21 0.22 0.23 0.24 0.25 0.26 0.26 0.26 0.27 0.27 0.28 0.28 0.28 0.30 0.30 0.29 0.27 0.26 0.25 0.24 0.23 0.22
0.23 0.24 0.25 0.25 0.25 0.26 0.27 0.28 0.29 0.30 0.30 0.30 0.30 0.32 0.31 0.31 0.28 0.26 0.24 0.24 0.24 0.22
0.25 0.26 0.25 0.26 0.27 0.28 0.29 0.29 0.30 0.30 0.31 0.32 0.31 0.33 0.33 0.32 0.29 0.25 0.23 0.24 0.23 0.23
0.27 0.27 0.28 0.28 0.29 0.29 0.29 0.29 0.29 0.30 0.32 0.33 0.34 0.33 0.34 0.33 0.29 0.25 0.23 0.22 0.21 0.21
Wind_Speed
54 54 55 56 56 57 57 58 58 59 59 59 60 60 61 61 61 61 61 60 59 58
55 55 56 57 58 58 59 59 60 60 61 61 61 61 62 62 63 62 63 63 63 62
56 57 58 59 60 60 61 61 62 62 62 62 62 62 63 63 63 63 63 64 65 65
59 59 60 61 61 61 62 62 63 63 64 64 64 63 63 64 64 65 65 64 65 66
60 60 61 61 61 61 62 62 62 63 64 64 64 64 64 64 64 65 65 65 65 66
59 60 60 59 59 58 57 57 57 58 59 61 62 63 64 64 65 65 65 66 66 66
57 56 55 55 54 53 53 54 54 55 55 56 57 58 60 61 63 64 64 64 65 65
53 53 52 51 51 52 52 52 52 53 52 52 53 53 55 57 59 60 61 61 62 63
50 50 50 50 50 49 49 49 48 49 49 49 49 50 51 53 55 57 57 57 57 58
49 49 48 47 47 47 47 47 46 46 46 46 46 47 48 48 50 53 55 55 54 54
48 46 46 46 46 46 44 42 42 42 42 43 42 43 45 45 45 47 51 53 53 52
44 45 45 44 42 41 41 41 42 42 42 42 41 41 41 41 40 40 42 46 49 50
43 44 41 40 40 42 42 42 41 40 39 40 40 40 39 37 36 35 35 38 42 46
41 38 38 40 41 40 36 33 33 33 35 37 36 34 34 33 32 31 30 31 32 35
Wind_Direction
294 292 290 289 287 285 284 282 280 277 275 273 271 269 267 265 263 260 258 257 255 254
295 294 292 291 289 287 285 283 281 278 276 273 271 269 267 265 263 261 259 256 255 253
297 295 293 292 290 288 286 284 282 279 277 274 272 269 266 264 262 261 259 257 255 253
298 296 295 293 291 289 287 285 282 280 278 275 272 270 267 264 262 260 259 257 255 253
299 297 295 294 292 290 287 285 283 281 278 275 272 270 267 264 262 259 257 256 255 253
300 299 297 295 294 292 289 287 285 282 280 276 273 269 266 264 261 259 257 255 253 252
302 301 300 298 296 294 292 290 287 284 282 279 275 271 267 264 261 258 256 254 252 250
305 304 302 300 298 296 294 292 289 286 283 280 277 273 268 264 260 257 255 254 251 250
308 306 305 302 300 299 297 294 292 289 286 282 278 274 270 265 261 256 253 251 250 249
311 309 307 306 303 301 299 297 293 291 288 284 280 275 271 267 262 256 251 249 248 248
314 312 311 308 306 304 302 300 297 294 291 287 284 278 272 267 263 257 250 247 246 246
317 315 314 312 311 309 307 303 300 297 293 288 284 280 273 265 261 257 251 246 245 244
320 319 318 318 316 314 310 306 303 299 295 292 286 279 272 264 255 253 250 247 244 242
324 324 324 322 321 319 319 319 317 314 308 299 291 281 269 258 248 248 246 244 241 237